Orbital Elements at Epoch 2459200.5 (2020-Dec-17.0) TDB
Reference: JPL 22 (heliocentric ecliptic J2000)
Element | Value | Uncertainty (1-sigma) | Units |
e | .2027110234544588 | 3.1956e-08 | |
a | 2.347908002325457 | 9.7251e-09 | au |
q | 1.871961168197149 | 7.4028e-08 | au |
i | 5.077561896280309 | 4.0396e-06 | deg |
node | 157.8401074303592 | 4.3169e-05 | deg |
peri | 94.66209077244461 | 4.4598e-05 | deg |
M | 173.2657233687884 | 1.0491e-05 | deg |
tp | 2458568.044175941566 (2019-Mar-25.54417594) | 3.7078e-05 | TDB |
period | 1314.074660782277 3.60 | 8.1644e-06 2.235e-08 | d yr |
n | .2739570366463728 | 1.7021e-09 | deg/d |
Q | 2.823854836453763 | 1.1697e-08 | au |
|
| | Orbit Determination Parameters
Additional Information
|